Regional Weather Roundup
Issued by NWS Green Bay, WI

Home | Current Version | Previous Version | Graphics & Text | Print | Product List | Glossary Off
Versions: 1 2 3 4 5 6 7 8 9 10 11 12 13 14 15 16 17 18 19 20 21 22 23 24 25 26 27 28 29 30 31 32 33 34 35 36 37 38 39 40 41 42 43 44 45 46 47 48 49 50

000
ASUS43 KGRB 260200
RWRGRB

NORTH-CENTRAL AND NORTHEAST WISCONSIN REGIONAL WEATHER ROUNDUP
NATIONAL WEATHER SERVICE GREEN BAY WI
900 PM CDT SUN SEP 25 2016

WIZ005-009-010>012-018-019-260300-
NORTH CENTRAL WISCONSIN

CITY           SKY/WX    TMP DP  RH WIND       PRES   REMARKS
IRONWOOD       CLOUDY    60  52  74 SW13      29.81F
MANITOWISH WTR NOT AVBL
ARBOR VITAE    NOT AVBL
EAGLE RIVER    NOT AVBL
LAND O LAKES   NOT AVBL
RHINELANDER    MOCLDY    59  54  83 W10       29.87R
PHILLIPS       NOT AVBL
ANTIGO         NOT AVBL
TOMAHAWK       NOT AVBL
MERRILL        NOT AVBL
$$

WIZ013-073-260300-
NORTHEAST WISCONSIN

CITY           SKY/WX    TMP DP  RH WIND       PRES   REMARKS
IRON MOUNTAIN  CLOUDY    65  62  90 S7        29.81S
MARINETTE        N/A    N/A N/A N/A MISG        N/A
$$

WIZ017-030-035>037-045-260300-
CENTRAL WISCONSIN

CITY           SKY/WX    TMP DP  RH WIND       PRES   REMARKS
MEDFORD        NOT AVBL
WAUSAU         MOCLDY    60  51  72 W9        29.88R
MOSINEE        PTCLDY    59  55  88 W12       29.91R
MARSHFIELD     LGT RAIN  59  53  80 W22G31    29.92R
WISC RAPIDS    CLOUDY    62  55  77 W8        29.93R
STEVENS POINT  NOT AVBL
WAUPACA        NOT AVBL
SHAWANO        NOT AVBL
CLINTONVILLE   NOT AVBL
WAUTOMA        CLOUDY    64  55  72 W9        29.92R
$$

WIZ038-039-048-051-260300-
FOX VALLEY

CITY           SKY/WX    TMP DP  RH WIND       PRES   REMARKS
NWS GREEN BAY  LGT RAIN  66  65  96 W12       29.87R
APPLETON       CLOUDY    64  57  77 W17       29.88R
OSHKOSH        CLOUDY    66  59  78 W9        29.89R
FOND DU LAC    CLOUDY    67  58  72 W10       29.90R
$$

WIZ022-050-052-260300-
EAST CENTRAL WISCONSIN

CITY           SKY/WX    TMP DP  RH WIND       PRES   REMARKS
EPHRAIM        NOT AVBL
WASHINGTON ISL NOT AVBL
STURGEON BAY   LGT RAIN  66  65  96 S9        29.84S
MANITOWOC      LGT RAIN  68  66  94 MISG      29.86S
SHEBOYGAN      LGT RAIN  68  66  93 W5        29.87S
$$

LMZ563-521-522-541>543-260300-
LAKESHORE

STATION/POSITION TIME  TEMP    WIND        PRES    VSBY  WAVE
                       AIR SEA DIR/SP/G                  HT/PER
                 (UTC) (F)     (DEG/KT/KT) (MB)    (MI)  (FT/S)
SHEBOYGAN LKSHOR 0100   70     190/ 11/ 11 1010.8F
KEWAUNEE LKSHORE 0100   67     200/ 10/ 12 1010.4F
NORTHPORT PIER   0100   67     160/  7/ 12 1010.5S
N MID LAKE BUOY  0050   66 67  170/ 12/ 14 1010.6R         4/ 5
CHAMBERS ISLAND  0100   67     160/  6/ 12 1009.5F
MENOMINEE LKSHOR 0100   67     180/  9/ 13 1009.1F
$$



USA.gov is the U.S. government's official web portal to all federal, state and local government web resources and services.